Location: Newark
(40.3500°N, 15.2333°E)
Time: 16:03:38
(UTC+00:00)

Altair - Pass Details

Date: 21 January 2020
Orbit: 1502 x 1682 km, 47.2° (Epoch: 22 February)

Event Time Altitude Azimuth Distance (km) Brightness Sun altitude
Rises 15:44:08 0° 298° (WNW) 4,917 10.7 2.4°
Reaches altitude 10° 15:47:32 10° 292° (WNW) 3,910 10.3 1.9°
Maximum altitude 15:56:39 42° 226° (SW) 2,172 9.1 0.3°
Drops below altitude 10° 16:05:28 10° 159° (SSE) 3,772 9.6 -1.2°
Sets 16:08:42 0° 153° (SSE) 4,728 10.0 -1.7°
